This is the latest recevied weather packets stored in our database for station/object IW3HBX-13. If no packets are shown the sender has not sent any weather packets the latest 1 day(s).
| Time | Temp. | Humidity | Pressure | Rain* | Wind** | Luminosity | Snow |
|---|---|---|---|---|---|---|---|
| 1778074934 | 16.11° C | 93% | 1010.4 hPa | 2.79 mm | - | 132 W/m² | - |
| 1778073850 | 16.11° C | 92% | 1010.5 hPa | 2.03 mm | - | 69 W/m² | - |
| 1778073492 | 16.67° C | 91% | 1010.6 hPa | 2.03 mm | - | 57 W/m² | - |
| 1778070253 | 17.78° C | 81% | 1010.8 hPa | 0 mm | - | 59 W/m² | - |
| 1778068448 | 17.78° C | 82% | 1011 hPa | 0 mm | - | 377 W/m² | - |
| 1778063008 | 16.67° C | 89% | 1011.7 hPa | 0.76 mm | - | 215 W/m² | - |
| 1778061360 | 17.22° C | 87% | 1011.7 hPa | 0.51 mm | - | 136 W/m² | - |
| 1778061248 | 16.67° C | 88% | 1011.7 hPa | 0.51 mm | - | 166 W/m² | - |
| 1778060887 | 17.22° C | 87% | 1011.7 hPa | 0.51 mm | - | 136 W/m² | - |
| 1778060529 | 17.22° C | 86% | 1011.7 hPa | 0 mm | - | 117 W/m² | - |
| 1778060168 | 17.22° C | 85% | 1011.7 hPa | 0 mm | - | 119 W/m² | - |
| 1778059449 | 17.78° C | 79% | 1011.7 hPa | 0 mm | - | 142 W/m² | - |
| 1778059090 | 17.78° C | 80% | 1011.7 hPa | 0 mm | - | 134 W/m² | - |
| 1778058729 | 17.78° C | 80% | 1011.6 hPa | 0 mm | - | 157 W/m² | - |
| 1778058367 | 17.78° C | 80% | 1011.7 hPa | 0 mm | - | 161 W/m² | - |
| 1778057288 | 17.78° C | 79% | 1011.3 hPa | 0 mm | - | 262 W/m² | - |
| 1778056928 | 17.78° C | 82% | 1011.4 hPa | 0 mm | - | 229 W/m² | - |
| 1778056567 | 17.78° C | 82% | 1011.3 hPa | 0 mm | - | 241 W/m² | - |
| 1778055847 | 17.22° C | 84% | 1011.4 hPa | 0 mm | - | 267 W/m² | - |
| 1778055487 | 17.22° C | 87% | 1011.3 hPa | 0 mm | - | 279 W/m² | - |
| 1778055127 | 17.22° C | 89% | 1011.2 hPa | 0 mm | - | 409 W/m² | - |
| 1778054767 | 16.67° C | 90% | 1011.2 hPa | 0 mm | - | 290 W/m² | - |
| 1778054050 | 16.67° C | 91% | 1011.4 hPa | 0 mm | - | 207 W/m² | - |
| 1778053690 | 16.11° C | 91% | 1011.5 hPa | 0 mm | - | 169 W/m² | - |
| 1778053329 | 16.11° C | 91% | 1011.5 hPa | 0 mm | - | 187 W/m² | - |
* Rain latest hour (hover to see other rain measurements)
** Current wind speed in m/s (hover to see current wind gust speed)